This is the latest recevied weather packets stored in our database for station/object KK7RJD. If no packets are shown the sender has not sent any weather packets the latest 10 day(s).
| Time | Temp. | Humidity | Pressure | Rain* | Wind** | Luminosity | Snow |
|---|---|---|---|---|---|---|---|
| 1777947703 | 9.44° C | 46% | 1013.5 hPa | 0 mm | - | 2 W/m² | - |
| 1777947399 | 9.44° C | 45% | 1013.5 hPa | 0 mm | - | 3 W/m² | - |
| 1777947096 | 9.44° C | 45% | 1013.4 hPa | 0 mm | - | 4 W/m² | - |
| 1777946792 | 9.44° C | 45% | 1013.3 hPa | 0 mm | - | 5 W/m² | - |
| 1777946488 | 9.44° C | 44% | 1013.3 hPa | 0 mm | - | 8 W/m² | - |
| 1777946185 | 9.44° C | 44% | 1013.4 hPa | 0 mm | - | 11 W/m² | - |
| 1777945882 | 9.44° C | 44% | 1013.3 hPa | 0 mm | - | 15 W/m² | - |
| 1777945579 | 9.44° C | 44% | 1013.2 hPa | 0 mm | - | 17 W/m² | - |
| 1777945276 | 9.44° C | 43% | 1013.2 hPa | 0 mm | - | 20 W/m² | - |
| 1777944973 | 10° C | 43% | 1013.2 hPa | 0 mm | - | 24 W/m² | - |
| 1777944670 | 10° C | 44% | 1012.9 hPa | 0 mm | - | 27 W/m² | - |
| 1777944368 | 10° C | 43% | 1012.9 hPa | 0 mm | - | 34 W/m² | - |
| 1777944065 | 10° C | 43% | 1013 hPa | 0 mm | - | 41 W/m² | - |
| 1777943760 | 10° C | 43% | 1012.9 hPa | 0 mm | - | 47 W/m² | - |
| 1777943459 | 10° C | 42% | 1013.2 hPa | 0 mm | - | 58 W/m² | - |
| 1777943159 | 10.56° C | 42% | 1013 hPa | 0 mm | - | 78 W/m² | - |
| 1777942856 | 10.56° C | 41% | 1012.9 hPa | 0 mm | - | 95 W/m² | - |
| 1777942552 | 10.56° C | 41% | 1013 hPa | 0 mm | - | 141 W/m² | - |
| 1777942249 | 11.11° C | 40% | 1013 hPa | 0 mm | - | 144 W/m² | - |
| 1777941946 | 10.56° C | 42% | 1012.9 hPa | 0 mm | - | 155 W/m² | - |
| 1777941643 | 10.56° C | 41% | 1012.9 hPa | 0 mm | - | 101 W/m² | - |
| 1777941340 | 10.56° C | 42% | 1012.9 hPa | 0 mm | - | 113 W/m² | - |
| 1777941037 | 10.56° C | 41% | 1012.8 hPa | 0 mm | - | 157 W/m² | - |
| 1777940738 | 10.56° C | 41% | 1012.9 hPa | 0 mm | - | 126 W/m² | - |
| 1777940437 | 10.56° C | 41% | 1012.8 hPa | 0 mm | - | 112 W/m² | - |
* Rain latest hour (hover to see other rain measurements)
** Current wind speed in m/s (hover to see current wind gust speed)